Zurück zum Katalog

ECHOSTAR 12

RAINBOW 1

AktivKommunikationGEO
NORAD 27852·PAYLOAD·🇺🇸 United States

Gestartet Jul 17, 2003 von Cape Canaveral Space Force Station

Loading…

TLE

AktuellSource: Space-Track

Epoche: Sep 14, 2026, 10:04 UTC

1 27852U 03033A   26257.41999113 -.00000140  00000-0  00000-0 0  9998
2 27852   6.4944  84.0220 0013634 133.9218 223.2063  0.98882767 84491

Verfolge ECHOSTAR 12 in Echtzeit mit AllMySat

Download on the App Store